Weather reports worldwide

Advertisment
Shap, United Kingdom (3225): temperature & dewpoint: 28.03.2020 23:00:00 - 03.04.2020 23:00:00 (BST)Shap, United Kingdom (3225): temperature -20cm & temperature -100cm: 28.03.2020 23:00:00 - 03.04.2020 23:00:00 (BST)Shap, United Kingdom (3225): wind speed & gusts: 28.03.2020 23:00:00 - 03.04.2020 23:00:00 (BST)Shap, United Kingdom (3225): wind direction: 28.03.2020 23:00:00 - 03.04.2020 23:00:00 (BST)Shap, United Kingdom (3225): reduced air pressure: 28.03.2020 23:00:00 - 03.04.2020 23:00:00 (BST)Shap, United Kingdom (3225): visibility: 28.03.2020 23:00:00 - 03.04.2020 23:00:00 (BST)Shap, United Kingdom (3225): sunshine duration: 28.03.2020 23:00:00 - 03.04.2020 23:00:00 (BST)Shap, United Kingdom (3225): precipitation: 28.03.2020 23:00:00 - 03.04.2020 23:00:00 (BST)
Date & Time tt [°C] td [°C] tt -20cm [°C] tt -100cm [°C] ff [km/h] ff [kn] fx [km/h] fx [kn] dd ppp [hPa] vv [km] sd [min] rr [mm]
03.04.2020 23:00:00 6,6 5,5 - - 21 11 - - SW 1016,0 2,9 0 0,0
03.04.2020 22:00:00 6,5 5,4 - - 18 10 - - WSW 1015,8 35 0 0,2
03.04.2020 21:00:00 6,1 4,8 - - 26 14 - - SW 1015,9 14 0 0,2
03.04.2020 20:00:00 5,4 3,8 - - 24 13 50 27 SW 1015,7 5 0 0,4
03.04.2020 19:00:00 6,2 3,5 - - 22 12 - - WSW 1015,4 35 0 0,0
03.04.2020 18:00:00 6,9 3,4 - - 28 15 - - WSW 1015,2 40 30 0,0
03.04.2020 17:00:00 7,9 3,3 - - 21 11 - - WSW 1015,2 35 36 0,0
03.04.2020 16:00:00 7,4 3,3 - - 24 13 - - WSW 1015,2 40 30 0,0
03.04.2020 15:00:00 7,7 4,3 - - 22 12 - - WSW 1015,3 30 0 0,0
03.04.2020 14:00:00 6,3 2,1 - - 26 14 - - SW 1015,5 29 0 0,0
03.04.2020 13:00:00 6,1 2,0 - - 22 12 - - WSW 1015,5 30 0 0,0
03.04.2020 12:00:00 5,6 2,9 - - 15 8 - - WSW 1015,6 12 6 0,0
03.04.2020 11:00:00 5,2 2,7 - - 21 11 - - WSW 1015,3 30 0 0,0
03.04.2020 10:00:00 3,7 2,0 6,2 5,7 13 7 - - WSW 1015,3 9 0 0,2
03.04.2020 09:00:00 4,1 1,0 - - 11 6 - - WSW 1014,8 45 0 0,0
03.04.2020 08:00:00 3,5 0,4 - - 15 8 - - WSW 1014,7 40 0 0,0
03.04.2020 07:00:00 3,7 -1,3 - - 13 7 - - W 1014,5 40 0 0,0
03.04.2020 06:00:00 3,8 -1,4 - - 15 8 - - W 1014,2 40 0 0,0
03.04.2020 05:00:00 3,8 -0,9 - - 15 8 - - W 1014,0 40 0 0,0
03.04.2020 04:00:00 3,6 -0,9 - - 11 6 - - NW 1014,2 40 0 0,0
03.04.2020 03:00:00 3,5 -1,4 - - 16 9 - - WNW 1014,1 45 0 0,0
03.04.2020 02:00:00 3,9 -1,0 - - 16 9 - - WNW 1014,1 40 0 0,0
03.04.2020 01:00:00 3,9 -0,8 - - 22 12 - - WNW 1014,0 35 - 0,0
03.04.2020 00:00:00 4,0 -0,7 - - 11 6 - - WNW 1014,2 40 0 0,0
02.04.2020 23:00:00 4,1 -0,6 - - 11 6 - - WNW 1014,0 40 0 0,0
02.04.2020 22:00:00 4,7 -0,4 - - 15 8 - - W 1013,5 35 0 0,0
02.04.2020 21:00:00 4,6 -0,1 - - 11 6 - - WNW 1013,3 35 0 0,0
02.04.2020 20:00:00 5,0 0,2 - - 15 8 - - WNW 1012,6 30 0 0,0
02.04.2020 19:00:00 6,0 0,8 - - 21 11 - - WNW 1012,5 35 6 0,0
02.04.2020 18:00:00 7,8 0,5 - - 24 13 46 25 WNW 1011,6 30 6 0,0
02.04.2020 17:00:00 7,9 1,1 - - 22 12 52 28 WNW 1011,4 35 24 0,0
02.04.2020 16:00:00 9,4 2,1 - - 28 15 54 29 WNW 1011,1 45 18 0,0
02.04.2020 15:00:00 7,8 3,2 - - 22 12 48 26 WNW 1011,5 18 18 0,0
02.04.2020 14:00:00 8,3 3,3 - - 28 15 54 29 NW 1010,9 17 0 0,0
02.04.2020 13:00:00 8,6 2,9 - - 22 12 54 29 WNW 1010,9 65 6 0,0
02.04.2020 12:00:00 9,2 4,0 - - 15 8 - - WNW 1010,7 65 6 0,0
02.04.2020 11:00:00 8,8 5,3 - - 21 11 - - WNW 1011,2 14 42 0,0
02.04.2020 10:00:00 9,4 5,4 6,0 5,7 21 11 54 29 W 1010,9 20 30 0,0
02.04.2020 09:00:00 8,3 5,0 - - 26 14 - - W 1011,1 45 0 0,0
02.04.2020 08:00:00 7,6 4,1 - - 24 13 - - W 1012,1 45 12 0,0
02.04.2020 07:00:00 6,9 2,5 - - 18 10 - - WNW 1012,6 45 0 0,0
02.04.2020 06:00:00 6,6 2,0 - - 18 10 - - WNW 1013,6 35 0 0,0
02.04.2020 05:00:00 6,7 2,3 - - 8 4 - - W 1014,2 40 0 0,0
02.04.2020 04:00:00 6,2 1,4 - - 21 11 - - NW 1015,3 50 0 0,0
02.04.2020 03:00:00 5,9 2,0 - - 16 9 - - WNW 1015,9 40 0 0,0
02.04.2020 02:00:00 6,9 3,4 - - 13 7 - - NW 1016,6 55 0 0,0
02.04.2020 01:00:00 6,2 4,3 - - 2 1 - - SW 1017,1 60 - 0,0
02.04.2020 00:00:00 6,6 4,5 - - 5 3 - - WNW 1017,8 55 0 0,0
01.04.2020 23:00:00 6,9 4,2 - - 15 8 - - W 1018,4 75 0 0,0
01.04.2020 22:00:00 6,5 4,2 - - 13 7 - - WNW 1019,0 30 0 0,0
01.04.2020 21:00:00 6,6 3,4 - - 11 6 - - WNW 1019,2 40 0 0,0
01.04.2020 20:00:00 6,7 2,6 - - 9 5 - - WNW 1019,0 45 6 0,0
01.04.2020 19:00:00 7,2 2,4 - - 21 11 - - NW 1019,0 50 0 0,0
01.04.2020 18:00:00 7,8 2,2 - - 16 9 - - WNW 1019,5 55 12 0,0
01.04.2020 17:00:00 7,9 1,5 - - 16 9 - - WNW 1020,0 60 12 0,0
01.04.2020 16:00:00 8,0 1,5 - - 18 10 - - WNW 1020,5 65 6 0,0
01.04.2020 15:00:00 7,6 1,5 - - 16 9 - - NW 1021,2 60 0 0,0
01.04.2020 14:00:00 7,4 1,7 - - 16 9 - - WNW 1021,7 30 0 0,0
01.04.2020 13:00:00 7,2 1,1 - - 16 9 - - NW 1022,3 75 0 0,0
01.04.2020 12:00:00 6,8 0,7 - - 16 9 - - NW 1023,0 60 0 0,0
01.04.2020 11:00:00 6,1 0,1 - - 16 9 - - NW 1023,6 55 0 0,0
01.04.2020 10:00:00 5,9 -0,6 5,9 5,7 13 7 - - NW 1024,0 70 0 0,0
01.04.2020 09:00:00 5,3 -0,6 - - 11 6 - - NW 1024,4 75 0 0,0
01.04.2020 08:00:00 4,5 0,8 - - 13 7 - - NW 1024,9 50 0 0,0
01.04.2020 07:00:00 2,8 1,4 - - 2 1 - - NNW 1025,4 50 0 0,0
01.04.2020 06:00:00 3,3 1,3 - - 2 1 - - WSW 1025,7 55 0 0,0
01.04.2020 05:00:00 3,9 0,9 - - 2 1 - - NNW 1026,2 65 0 0,0
01.04.2020 04:00:00 4,7 0,8 - - 8 4 - - WSW 1026,5 75 0 0,0
01.04.2020 03:00:00 4,7 1,4 - - 9 5 - - SW 1027,4 70 0 0,0
01.04.2020 02:00:00 3,5 2,0 - - 0 0 - - N 1028,4 60 0 0,0
01.04.2020 01:00:00 4,0 2,1 - - 2 1 - - SW 1029,0 60 - 0,0
01.04.2020 00:00:00 3,8 1,8 - - 0 0 - - N 1029,7 60 0 0,0
31.03.2020 23:00:00 4,4 2,0 - - 5 3 - - WSW 1030,2 55 0 0,0
31.03.2020 22:00:00 4,7 2,5 - - 2 1 - - WSW 1030,8 55 0 0,0
31.03.2020 21:00:00 5,1 2,5 - - 2 1 - - W 1031,2 50 0 0,0
31.03.2020 20:00:00 6,1 2,2 - - 4 2 - - N 1031,3 55 0 0,0
31.03.2020 19:00:00 6,8 2,1 - - 8 4 - - NNW 1031,5 65 0 0,0
31.03.2020 18:00:00 7,4 2,5 - - 8 4 - - N 1031,8 65 0 0,0
31.03.2020 17:00:00 8,2 1,4 - - 9 5 - - N 1032,2 75 0 0,0
31.03.2020 16:00:00 8,2 1,0 - - 11 6 - - NNE 1032,8 70 12 0,0
31.03.2020 15:00:00 8,6 0,2 - - 8 4 - - N 1033,4 75 18 0,0
31.03.2020 14:00:00 7,4 0,0 - - 11 6 - - NNW 1034,4 30 0 0,0
31.03.2020 13:00:00 7,5 0,0 - - 9 5 - - NNW 1034,9 75 0 0,0
31.03.2020 12:00:00 7,6 1,4 - - 15 8 - - N 1035,4 70 30 0,0
31.03.2020 11:00:00 7,3 2,3 - - 9 5 - - N 1035,7 75 48 0,0
31.03.2020 10:00:00 6,5 3,0 5,7 5,7 8 4 - - N 1036,2 50 60 0,0
31.03.2020 09:00:00 5,1 2,5 - - 4 2 - - ENE 1036,7 40 60 0,0
31.03.2020 08:00:00 2,4 1,6 - - 4 2 - - SE 1037,2 35 24 0,0
31.03.2020 07:00:00 2,2 0,7 - - 8 4 - - NW 1037,2 22 0 0,0
31.03.2020 06:00:00 3,0 1,5 - - 9 5 - - NNW 1036,8 35 0 0,0
31.03.2020 05:00:00 2,9 1,3 - - 11 6 - - NNW 1036,8 35 0 0,0
31.03.2020 04:00:00 2,6 1,5 - - 8 4 - - NNW 1037,0 35 0 0,0
31.03.2020 03:00:00 2,1 0,4 - - 11 6 - - NW 1037,0 40 0 0,0
31.03.2020 02:00:00 3,1 1,1 - - 13 7 - - NNW 1037,1 40 0 0,0
31.03.2020 01:00:00 2,2 0,6 - - 13 7 - - NNW 1037,2 40 - 0,0
31.03.2020 00:00:00 2,8 -0,2 - - 13 7 - - N 1037,0 45 0 0,0
30.03.2020 23:00:00 4,5 1,7 - - 11 6 - - NE 1037,0 40 0 0,0
30.03.2020 22:00:00 1,9 0,0 - - 5 3 - - NW 1037,4 40 0 0,0
30.03.2020 21:00:00 4,1 0,1 - - 13 7 - - N 1037,0 50 0 0,0
30.03.2020 20:00:00 6,6 1,0 - - 13 7 - - NE 1036,4 50 0 0,0
30.03.2020 19:00:00 7,8 1,2 - - 16 9 - - NNE 1035,8 50 0 0,0
30.03.2020 18:00:00 8,3 0,9 - - 15 8 - - NNE 1035,8 70 18 0,0
30.03.2020 17:00:00 8,4 0,4 - - 21 11 - - NNE 1035,8 70 0 0,0
30.03.2020 16:00:00 8,2 0,5 - - 21 11 - - NE 1036,3 75 0 0,0
30.03.2020 15:00:00 8,3 0,7 - - 21 11 - - NNE 1036,8 65 0 0,0
30.03.2020 14:00:00 8,0 0,9 - - 22 12 - - NNE 1037,0 50 12 0,0
30.03.2020 13:00:00 8,4 1,9 - - 28 15 - - NNE 1037,0 55 18 0,0
30.03.2020 12:00:00 7,9 2,4 - - 29 16 - - N 1037,4 35 24 0,0
30.03.2020 11:00:00 6,9 2,7 - - 28 15 - - N 1038,0 45 48 0,0
30.03.2020 10:00:00 5,9 1,7 5,5 5,7 24 13 - - N 1038,7 45 54 0,0
30.03.2020 09:00:00 4,4 1,6 - - 16 9 - - N 1039,0 60 0 0,0
30.03.2020 08:00:00 3,5 1,2 - - 13 7 - - NNW 1039,4 60 0 0,0
30.03.2020 07:00:00 2,8 0,7 - - 13 7 - - NNW 1039,4 60 0 0,0
30.03.2020 06:00:00 3,2 0,6 - - 13 7 - - NNW 1039,7 55 0 0,0
30.03.2020 05:00:00 2,8 -0,5 - - 4 2 - - NW 1040,0 60 0 0,0
30.03.2020 04:00:00 2,9 -0,3 - - 5 3 - - NW 1040,3 55 0 0,0
30.03.2020 03:00:00 2,5 -0,6 - - 5 3 - - NNW 1041,3 55 0 0,0
30.03.2020 02:00:00 2,5 -1,6 - - 13 7 - - NNW 1041,8 55 0 0,0
30.03.2020 01:00:00 3,0 -1,6 - - 9 5 - - NNW 1042,4 55 - 0,0
30.03.2020 00:00:00 3,1 -2,4 - - 11 6 - - NNW 1043,1 60 0 0,0
29.03.2020 23:00:00 2,5 -2,7 - - 8 4 - - NNW 1043,5 60 0 0,0
29.03.2020 22:00:00 2,0 -3,3 - - 8 4 - - NNW 1044,4 60 0 0,0
29.03.2020 21:00:00 2,2 -3,3 - - 8 4 - - NW 1044,8 60 0 0,0
29.03.2020 20:00:00 2,3 -3,8 - - 9 5 - - NW 1045,2 60 6 0,0
29.03.2020 19:00:00 3,1 -4,4 - - 18 10 - - N 1045,3 60 60 0,0
29.03.2020 18:00:00 3,6 -4,4 - - 18 10 - - N 1045,4 60 18 0,0
29.03.2020 17:00:00 3,4 -3,6 - - 24 13 - - N 1046,1 55 0 0,0
29.03.2020 16:00:00 3,7 -2,4 - - 22 12 - - NNE 1046,1 55 0 0,0
29.03.2020 15:00:00 3,4 -2,7 - - 24 13 - - N 1046,2 11 0 0,0
29.03.2020 14:00:00 3,6 -3,1 - - 21 11 - - NNE 1046,3 50 0 0,0
29.03.2020 13:00:00 3,6 -2,1 - - 26 14 - - NNE 1046,4 40 6 0,0
29.03.2020 12:00:00 2,8 -2,6 - - 22 12 - - NNE 1046,5 45 0 0,0
29.03.2020 11:00:00 2,5 -2,0 - - 31 17 - - NNE 1046,3 45 24 0,0
29.03.2020 10:00:00 2,8 -1,9 5,9 5,7 34 18 48 26 NNE 1045,6 35 42 0,0
29.03.2020 09:00:00 1,4 -2,3 - - 39 21 50 27 NNE 1045,6 35 0 0,0
29.03.2020 08:00:00 1,1 -3,5 - - 35 19 52 28 NNE 1044,8 40 0 0,0
29.03.2020 07:00:00 0,7 -3,4 - - 26 14 46 25 NNE 1044,0 35 0 0,0
29.03.2020 06:00:00 1,1 -3,4 - - 24 13 - - NNE 1044,1 40 0 0,0
29.03.2020 05:00:00 1,0 -3,0 - - 24 13 46 25 NNE 1044,1 30 0 0,0
29.03.2020 04:00:00 0,9 -2,8 - - 22 12 46 25 N 1043,7 35 0 0,0
29.03.2020 03:00:00 1,2 -3,5 - - 21 11 - - N 1043,9 40 0 0,0
29.03.2020 02:00:00 1,2 -3,6 - - 21 11 - - N 1043,7 35 0 0,0
29.03.2020 01:00:00 0,7 -3,7 - - 22 12 - - N 1043,5 30 - 0,0
29.03.2020 00:00:00 1,6 -1,4 - - 24 13 - - N 1042,7 28 0 0,2
28.03.2020 23:00:00 - - - - - - - - - - - - -

tt = temperature
td = dewpoint
tt -20cm = temperature -20cm
tt -100cm = temperature -100cm
ff = wind speed
fx = gusts
dd = wind direction
ppp = reduced air pressure
vv = visibility
sd = sunshine duration
rr = precipitation

Next stations